| time (UTC) | temp F | wind direction | speed MPH | gust MPH | rain 1hr in | rain 24hr in | rain mn in | humidity % | barometer mb |
| 20260508122541 | 72 | 219 | 10.0 | 18.0 | 0.00 | 0.00 | 0.00 | 45 | 1018.1 |
| 20260508122041 | 72 | 235 | 12.0 | 17.0 | 0.00 | 0.00 | 0.00 | 45 | 1018.1 |
| 20260508121544 | 72 | 215 | 10.0 | 17.0 | 0.00 | 0.00 | 0.00 | 45 | 1018.1 |
| 20260508121039 | 73 | 200 | 10.0 | 15.0 | 0.00 | 0.00 | 0.00 | 44 | 1018.2 |
| 20260508120539 | 73 | 248 | 6.0 | 14.0 | 0.00 | 0.00 | 0.00 | 45 | 1018.3 |
| 20260508120038 | 72 | 204 | 9.0 | 19.0 | 0.00 | 0.00 | 0.00 | 46 | 1018.2 |
| 20260508115537 | 71 | 211 | 10.0 | 19.0 | 0.00 | 0.00 | 0.00 | 45 | 1018.2 |
| 20260508115036 | 72 | 202 | 8.0 | 16.0 | 0.00 | 0.00 | 0.00 | 46 | 1018.3 |
| 20260508114545 | 72 | 234 | 9.0 | 16.0 | 0.00 | 0.00 | 0.00 | 45 | 1018.3 |
| 20260508114034 | 72 | 219 | 8.0 | 15.0 | 0.00 | 0.00 | 0.00 | 46 | 1018.0 |
| 20260508113533 | 71 | 221 | 5.0 | 8.0 | 0.00 | 0.00 | 0.00 | 51 | 1018.2 |
| 20260508113033 | 70 | 205 | 1.0 | 6.0 | 0.00 | 0.00 | 0.00 | 50 | 1018.1 |
| 20260508112531 | 70 | 130 | 2.0 | 7.0 | 0.00 | 0.00 | 0.00 | 50 | 1017.8 |
| 20260508112032 | 70 | 290 | 3.0 | 7.0 | 0.00 | 0.00 | 0.00 | 50 | 1018.7 |
| 20260508111531 | 70 | 285 | 1.0 | 4.0 | 0.00 | 0.00 | 0.00 | 51 | 1018.6 |
| 20260508111030 | 70 | 283 | 2.0 | 5.0 | 0.00 | 0.00 | 0.00 | 52 | 1018.6 |
| 20260508110531 | 69 | 304 | 3.0 | 7.0 | 0.00 | 0.00 | 0.00 | 52 | 1018.7 |
| 20260508110034 | 69 | 304 | 4.0 | 7.0 | 0.00 | 0.00 | 0.00 | 53 | 1019.0 |
| 20260508105529 | 69 | 257 | 3.0 | 6.0 | 0.00 | 0.00 | 0.00 | 53 | 1018.9 |
| 20260508105032 | 69 | 260 | 3.0 | 7.0 | 0.00 | 0.00 | 0.00 | 54 | 1019.1 |
| 20260508104529 | 69 | 263 | 4.0 | 7.0 | 0.00 | 0.00 | 0.00 | 53 | 1019.2 |
| 20260508104028 | 69 | 240 | 2.0 | 8.0 | 0.00 | 0.00 | 0.00 | 54 | 1019.2 |
| 20260508103528 | 69 | 254 | 5.0 | 9.0 | 0.00 | 0.00 | 0.00 | 54 | 1019.4 |
| 20260508103037 | 69 | 269 | 7.0 | 9.0 | 0.00 | 0.00 | 0.00 | 54 | 1019.5 |
| 20260508102528 | 69 | 252 | 6.0 | 9.0 | 0.00 | 0.00 | 0.00 | 54 | 1019.5 |
| 20260508102028 | 69 | 254 | 4.0 | 7.0 | 0.00 | 0.00 | 0.00 | 55 | 1019.4 |
| 20260508101526 | 69 | 232 | 3.0 | 8.0 | 0.00 | 0.00 | 0.00 | 55 | 1019.3 |
| 20260508101025 | 69 | 208 | 4.0 | 7.0 | 0.00 | 0.00 | 0.00 | 55 | 1019.3 |
| 20260508100525 | 69 | 204 | 4.0 | 10.0 | 0.00 | 0.00 | 0.00 | 55 | 1019.3 |
| 20260508100024 | 69 | 261 | 5.0 | 10.0 | 0.00 | 0.00 | 0.00 | 56 | 1019.5 |
| 20260508095524 | 68 | 219 | 4.0 | 9.0 | 0.00 | 0.00 | 0.00 | 57 | 1019.6 |
| 20260508095027 | 68 | 268 | 7.0 | 10.0 | 0.00 | 0.00 | 0.00 | 57 | 1019.6 |
| 20260508094539 | 68 | 246 | 7.0 | 10.0 | 0.00 | 0.00 | 0.00 | 57 | 1019.8 |
| 20260508094023 | 68 | 259 | 5.0 | 10.0 | 0.00 | 0.00 | 0.00 | 57 | 1020.0 |
| 20260508093523 | 68 | 237 | 6.0 | 10.0 | 0.00 | 0.00 | 0.00 | 56 | 1020.0 |
| 20260508093026 | 68 | 288 | 7.0 | 9.0 | 0.00 | 0.00 | 0.00 | 55 | 1020.1 |
| 20260508092522 | 68 | 253 | 7.0 | 9.0 | 0.00 | 0.00 | 0.00 | 55 | 1020.0 |
| 20260508092021 | 68 | 263 | 5.0 | 10.0 | 0.00 | 0.00 | 0.00 | 55 | 1020.0 |
| 20260508091539 | 68 | 243 | 7.0 | 10.0 | 0.00 | 0.00 | 0.00 | 55 | 1020.1 |
| 20260508091021 | 69 | 248 | 5.0 | 12.0 | 0.00 | 0.00 | 0.00 | 55 | 1020.1 |
| 20260508090521 | 68 | 227 | 6.0 | 12.0 | 0.00 | 0.00 | 0.00 | 56 | 1020.1 |
| 20260508090020 | 68 | 229 | 8.0 | 12.0 | 0.00 | 0.00 | 0.00 | 56 | 1020.3 |
| 20260508085522 | 67 | 221 | 5.0 | 10.0 | 0.00 | 0.00 | 0.00 | 59 | 1020.3 |
| 20260508085019 | 67 | 261 | 6.0 | 9.0 | 0.00 | 0.00 | 0.00 | 59 | 1020.3 |
| 20260508084516 | 67 | 256 | 3.0 | 8.0 | 0.00 | 0.00 | 0.00 | 61 | 1020.3 |
| 20260508084016 | 67 | 257 | 5.0 | 8.0 | 0.00 | 0.00 | 0.00 | 60 | 1020.3 |
| 20260508083516 | 67 | 246 | 4.0 | 8.0 | 0.00 | 0.00 | 0.00 | 60 | 1020.4 |
| 20260508083016 | 67 | 277 | 4.0 | 7.0 | 0.00 | 0.00 | 0.00 | 60 | 1020.4 |
| 20260508082519 | 67 | 273 | 4.0 | 7.0 | 0.00 | 0.00 | 0.00 | 60 | 1020.4 |
| 20260508082015 | 67 | 216 | 3.0 | 8.0 | 0.00 | 0.00 | 0.00 | 58 | 1020.3 |
| 20260508081526 | 67 | 218 | 4.0 | 10.0 | 0.00 | 0.00 | 0.00 | 58 | 1020.4 |
| 20260508081017 | 67 | 254 | 5.0 | 10.0 | 0.00 | 0.00 | 0.00 | 57 | 1020.5 |
| 20260508080514 | 67 | 276 | 5.0 | 9.0 | 0.00 | 0.00 | 0.00 | 56 | 1020.4 |
| 20260508080014 | 67 | 253 | 5.0 | 13.0 | 0.00 | 0.00 | 0.00 | 54 | 1020.5 |
| 20260508075514 | 67 | 258 | 8.0 | 13.0 | 0.00 | 0.00 | 0.00 | 55 | 1020.5 |
| 20260508075013 | 67 | 270 | 7.0 | 12.0 | 0.00 | 0.00 | 0.00 | 54 | 1020.5 |
| 20260508074513 | 67 | 265 | 9.0 | 12.0 | 0.00 | 0.00 | 0.00 | 53 | 1020.6 |
| 20260508074013 | 68 | 264 | 6.0 | 9.0 | 0.00 | 0.00 | 0.00 | 52 | 1020.5 |
| 20260508073511 | 68 | 211 | 5.0 | 9.0 | 0.00 | 0.00 | 0.00 | 50 | 1020.6 |
| 20260508073010 | 68 | 213 | 3.0 | 8.0 | 0.00 | 0.00 | 0.00 | 50 | 1020.6 |
| 20260508072508 | 67 | 246 | 4.0 | 8.0 | 0.00 | 0.00 | 0.00 | 50 | 1020.8 |
| 20260508072007 | 67 | 201 | 4.0 | 9.0 | 0.00 | 0.00 | 0.00 | 49 | 1021.0 |
| 20260508071517 | 67 | 248 | 5.0 | 9.0 | 0.00 | 0.00 | 0.00 | 48 | 1021.1 |
| 20260508071004 | 67 | 234 | 6.0 | 8.0 | 0.00 | 0.00 | 0.00 | 47 | 1021.1 |
| 20260508070504 | 67 | 219 | 5.0 | 9.0 | 0.00 | 0.00 | 0.00 | 46 | 1021.2 |
| 20260508070004 | 67 | 242 | 6.0 | 10.0 | 0.00 | 0.00 | 0.00 | 46 | 1021.2 |
| 20260508065505 | 67 | 249 | 6.0 | 11.0 | 0.00 | 0.00 | 0.00 | 47 | 1021.4 |
| 20260508065002 | 67 | 261 | 6.0 | 10.0 | 0.00 | 0.00 | 0.00 | 47 | 1021.3 |
| 20260508064505 | 67 | 265 | 7.0 | 10.0 | 0.00 | 0.00 | 0.00 | 47 | 1021.2 |
| 20260508064100 | 67 | 232 | 5.0 | 9.0 | 0.00 | 0.00 | 0.00 | 47 | 1021.1 |
| 20260508063559 | 67 | 265 | 5.0 | 9.0 | 0.00 | 0.00 | 0.00 | 46 | 1021.0 |
| 20260508063058 | 67 | 243 | 5.0 | 10.0 | 0.00 | 0.00 | 0.00 | 46 | 1020.9 |
| 20260508062557 | 67 | 244 | 7.0 | 10.0 | 0.00 | 0.00 | 0.00 | 47 | 1020.9 |
| 20260508062056 | 67 | 242 | 6.0 | 9.0 | 0.00 | 0.00 | 0.00 | 48 | 1020.8 |
| 20260508061557 | 67 | 273 | 5.0 | 8.0 | 0.00 | 0.00 | 0.00 | 50 | 1020.8 |
| 20260508061056 | 67 | 257 | 5.0 | 8.0 | 0.00 | 0.00 | 0.00 | 50 | 1020.7 |
| 20260508060555 | 67 | 280 | 5.0 | 8.0 | 0.00 | 0.00 | 0.00 | 50 | 1020.6 |
| 20260508060054 | 67 | 271 | 5.0 | 8.0 | 0.00 | 0.00 | 0.00 | 52 | 1020.5 |
| 20260508055557 | 67 | 307 | 4.0 | 7.0 | 0.00 | 0.00 | 0.00 | 54 | 1020.3 |
| 20260508055052 | 67 | 278 | 3.0 | 5.0 | 0.00 | 0.00 | 0.00 | 54 | 1020.0 |
| 20260508054607 | 67 | 278 | 2.0 | 6.0 | 0.00 | 0.00 | 0.00 | 56 | 1019.8 |
| 20260508054051 | 66 | 267 | 3.0 | 6.0 | 0.00 | 0.00 | 0.00 | 56 | 1019.6 |
| 20260508053550 | 66 | 254 | 3.0 | 4.0 | 0.00 | 0.00 | 0.00 | 55 | 1019.4 |
| 20260508053053 | 66 | 252 | 2.0 | 4.0 | 0.00 | 0.00 | 0.00 | 55 | 1019.3 |
| 20260508052549 | 66 | 286 | 1.0 | 3.0 | 0.00 | 0.00 | 0.00 | 55 | 1019.2 |
| 20260508052048 | 67 | 292 | 1.0 | 3.0 | 0.00 | 0.00 | 0.00 | 54 | 1019.1 |
| 20260508051548 | 67 | 219 | 1.0 | 3.0 | 0.00 | 0.00 | 0.00 | 54 | 1019.0 |
| 20260508051048 | 66 | 205 | 2.0 | 3.0 | 0.00 | 0.00 | 0.00 | 54 | 1018.9 |
| 20260508050547 | 66 | 191 | 0.0 | 2.0 | 0.00 | 0.00 | 0.00 | 55 | 1018.9 |
| 20260508050046 | 66 | 190 | 0.0 | 2.0 | 0.00 | 0.00 | 0.00 | 55 | 1019.0 |
| 20260508045545 | 65 | 190 | 0.0 | 3.0 | 0.00 | 0.00 | 0.00 | 56 | 1018.9 |
| 20260508045043 | 65 | 194 | 2.0 | 4.0 | 0.00 | 0.00 | 0.00 | 56 | 1018.8 |
| 20260508044544 | 66 | 211 | 2.0 | 3.0 | 0.00 | 0.00 | 0.00 | 55 | 1018.9 |
| 20260508044044 | 65 | 326 | 1.0 | 3.0 | 0.00 | 0.00 | 0.00 | 54 | 1018.9 |
| 20260508043539 | 65 | 332 | 1.0 | 3.0 | 0.00 | 0.00 | 0.00 | 57 | 1018.8 |
| 20260508043038 | 66 | 342 | 1.0 | 3.0 | 0.00 | 0.00 | 0.00 | 56 | 1018.7 |
| 20260508042537 | 66 | 10 | 1.0 | 3.0 | 0.00 | 0.00 | 0.00 | 52 | 1018.4 |
| 20260508042036 | 66 | 38 | 0.0 | 4.0 | 0.00 | 0.00 | 0.00 | 53 | 1018.4 |
| 20260508041538 | 65 | 12 | 2.0 | 4.0 | 0.00 | 0.00 | 0.00 | 56 | 1018.4 |
| 20260508041035 | 64 | 61 | 2.0 | 5.0 | 0.00 | 0.00 | 0.00 | 57 | 1018.3 |
| 20260508040535 | 64 | 71 | 2.0 | 5.0 | 0.00 | 0.00 | 0.00 | 61 | 1018.2 |
| 20260508040036 | 64 | 360 | 3.0 | 5.0 | 0.00 | 0.00 | 0.00 | 61 | 1018.2 |
| 20260508035534 | 65 | 355 | 2.0 | 5.0 | 0.00 | 0.00 | 0.00 | 57 | 1018.1 |
| 20260508035033 | 65 | 76 | 2.0 | 4.0 | 0.00 | 0.00 | 0.00 | 55 | 1017.9 |
| 20260508034538 | 65 | 67 | 1.0 | 3.0 | 0.00 | 0.00 | 0.00 | 57 | 1018.0 |
| 20260508034032 | 65 | 54 | 1.0 | 3.0 | 0.00 | 0.00 | 0.00 | 58 | 1017.9 |
| 20260508033532 | 65 | 48 | 1.0 | 5.0 | 0.00 | 0.00 | 0.00 | 59 | 1018.0 |
| 20260508033036 | 65 | 17 | 2.0 | 5.0 | 0.00 | 0.00 | 0.00 | 58 | 1018.0 |
| 20260508032533 | 65 | 31 | 2.0 | 4.0 | 0.00 | 0.00 | 0.00 | 59 | 1017.9 |
| 20260508032032 | 64 | 36 | 2.0 | 4.0 | 0.00 | 0.00 | 0.00 | 60 | 1018.0 |
| 20260508031536 | 64 | 11 | 3.0 | 4.0 | 0.00 | 0.00 | 0.00 | 60 | 1018.1 |
| 20260508031034 | 65 | 69 | 1.0 | 3.0 | 0.00 | 0.00 | 0.00 | 59 | 1018.0 |
| 20260508030531 | 65 | 88 | 0.0 | 3.0 | 0.00 | 0.00 | 0.00 | 57 | 1017.7 |
| 20260508030035 | 64 | 74 | 0.0 | 5.0 | 0.00 | 0.00 | 0.00 | 58 | 1017.7 |
| 20260508025535 | 64 | 71 | 3.0 | 5.0 | 0.00 | 0.00 | 0.00 | 60 | 1017.6 |
| 20260508025029 | 64 | 30 | 2.0 | 4.0 | 0.00 | 0.00 | 0.00 | 61 | 1018.0 |
| 20260508024529 | 63 | 46 | 0.0 | 3.0 | 0.00 | 0.00 | 0.00 | 64 | 1018.0 |
| 20260508024029 | 64 | 14 | 1.0 | 3.0 | 0.00 | 0.00 | 0.00 | 64 | 1018.0 |
| 20260508023529 | 64 | 72 | 1.0 | 3.0 | 0.00 | 0.00 | 0.00 | 60 | 1018.0 |
| 20260508023036 | 64 | 71 | 1.0 | 4.0 | 0.00 | 0.00 | 0.00 | 61 | 1018.1 |
| 20260508022528 | 64 | 46 | 1.0 | 4.0 | 0.00 | 0.00 | 0.00 | 61 | 1018.2 |
| 20260508022028 | 64 | 61 | 0.0 | 3.0 | 0.00 | 0.00 | 0.00 | 62 | 1018.1 |
| 20260508021530 | 64 | 59 | 1.0 | 3.0 | 0.00 | 0.00 | 0.00 | 63 | 1017.9 |
| 20260508021028 | 64 | 58 | 1.0 | 4.0 | 0.00 | 0.00 | 0.00 | 64 | 1018.1 |
| 20260508020527 | 63 | 61 | 2.0 | 4.0 | 0.00 | 0.00 | 0.00 | 65 | 1018.1 |
| 20260508020027 | 63 | 29 | 0.0 | 4.0 | 0.00 | 0.00 | 0.00 | 67 | 1018.2 |
| 20260508015527 | 64 | 44 | 2.0 | 4.0 | 0.00 | 0.00 | 0.00 | 66 | 1018.1 |
| 20260508015026 | 63 | 57 | 1.0 | 3.0 | 0.00 | 0.00 | 0.00 | 66 | 1018.1 |
| 20260508014525 | 63 | 57 | 0.0 | 2.0 | 0.00 | 0.00 | 0.00 | 67 | 1018.1 |
| 20260508014023 | 63 | 58 | 0.0 | 3.0 | 0.00 | 0.00 | 0.00 | 67 | 1018.4 |
| 20260508013523 | 63 | 57 | 0.0 | 3.0 | 0.00 | 0.00 | 0.00 | 67 | 1018.3 |
| 20260508013023 | 63 | 52 | 1.0 | 3.0 | 0.00 | 0.00 | 0.00 | 67 | 1018.4 |
| 20260508012525 | 64 | 56 | 1.0 | 3.0 | 0.00 | 0.00 | 0.00 | 67 | 1018.5 |
| 20260508012022 | 64 | 55 | 1.0 | 2.0 | 0.00 | 0.00 | 0.00 | 67 | 1018.5 |
| 20260508011521 | 64 | 54 | 0.0 | 2.0 | 0.00 | 0.00 | 0.00 | 67 | 1018.6 |
| 20260508011021 | 64 | 49 | 0.0 | 2.0 | 0.00 | 0.00 | 0.00 | 67 | 1018.7 |
| 20260508010521 | 64 | 46 | 0.0 | 0.0 | 0.00 | 0.00 | 0.00 | 67 | 1018.8 |
| 20260508010022 | 64 | 44 | 0.0 | 0.0 | 0.00 | 0.00 | 0.00 | 67 | 1018.8 |
| 20260508005520 | 64 | 43 | 0.0 | 1.0 | 0.00 | 0.00 | 0.00 | 66 | 1018.7 |
| 20260508005020 | 64 | 43 | 0.0 | 2.0 | 0.00 | 0.00 | 0.00 | 67 | 1018.9 |
| 20260508004519 | 64 | 34 | 0.0 | 2.0 | 0.00 | 0.00 | 0.00 | 66 | 1018.9 |
| 20260508004020 | 64 | 33 | 0.0 | 2.0 | 0.00 | 0.00 | 0.00 | 66 | 1018.9 |
| 20260508003519 | 64 | 29 | 0.0 | 2.0 | 0.00 | 0.00 | 0.00 | 66 | 1018.8 |
| 20260508003018 | 64 | 26 | 0.0 | 2.0 | 0.00 | 0.00 | 0.00 | 66 | 1018.8 |
| 20260508002518 | 64 | 17 | 0.0 | 3.0 | 0.00 | 0.00 | 0.00 | 66 | 1018.8 |
| 20260508002018 | 64 | 15 | 1.0 | 3.0 | 0.00 | 0.00 | 0.00 | 66 | 1018.8 |
| 20260508001536 | 64 | 14 | 1.0 | 4.0 | 0.00 | 0.00 | 0.00 | 66 | 1018.9 |
| 20260508001017 | 64 | 346 | 0.0 | 3.0 | 0.00 | 0.00 | 0.00 | 66 | 1018.8 |
| 20260508000516 | 64 | 282 | 0.0 | 0.0 | 0.00 | 0.00 | 0.00 | 66 | 1018.8 |
| 20260508000016 | 64 | 279 | 0.0 | 2.0 | 0.00 | 0.00 | 0.00 | 66 | 1019.0 |
| 20260507235516 | 64 | 279 | 0.0 | 2.0 | 0.00 | 0.00 | 0.00 | 66 | 1019.1 |
| 20260507235017 | 64 | 279 | 0.0 | 6.0 | 0.00 | 0.00 | 0.00 | 66 | 1019.2 |
| 20260507234514 | 64 | 279 | 1.0 | 6.0 | 0.00 | 0.00 | 0.00 | 65 | 1019.3 |
| 20260507234014 | 64 | 277 | 2.0 | 7.0 | 0.00 | 0.00 | 0.00 | 65 | 1019.4 |
| 20260507233513 | 64 | 268 | 3.0 | 7.0 | 0.00 | 0.00 | 0.00 | 65 | 1019.4 |
| 20260507233021 | 64 | 271 | 3.0 | 4.0 | 0.00 | 0.00 | 0.00 | 64 | 1019.6 |
| 20260507232511 | 64 | 279 | 2.0 | 6.0 | 0.00 | 0.00 | 0.00 | 63 | 1019.4 |
| 20260507232011 | 64 | 271 | 2.0 | 6.0 | 0.00 | 0.00 | 0.00 | 63 | 1019.5 |
| 20260507231513 | 65 | 282 | 2.0 | 3.0 | 0.00 | 0.00 | 0.00 | 63 | 1019.6 |
| 20260507231010 | 65 | 281 | 0.0 | 2.0 | 0.00 | 0.00 | 0.00 | 62 | 1019.4 |
| 20260507230513 | 65 | 281 | 0.0 | 2.0 | 0.00 | 0.00 | 0.00 | 62 | 1019.5 |
| 20260507230022 | 65 | 282 | 1.0 | 3.0 | 0.00 | 0.00 | 0.00 | 62 | 1019.5 |
| 20260507225508 | 65 | 282 | 1.0 | 3.0 | 0.00 | 0.00 | 0.00 | 61 | 1019.6 |
| 20260507225010 | 65 | 282 | 1.0 | 3.0 | 0.00 | 0.00 | 0.00 | 61 | 1019.6 |
| 20260507224512 | 65 | 284 | 1.0 | 4.0 | 0.00 | 0.00 | 0.00 | 61 | 1019.7 |
| 20260507224007 | 65 | 284 | 2.0 | 5.0 | 0.00 | 0.00 | 0.00 | 61 | 1019.7 |
| 20260507223507 | 65 | 289 | 2.0 | 5.0 | 0.00 | 0.00 | 0.00 | 60 | 1019.7 |
| 20260507223006 | 65 | 273 | 2.0 | 4.0 | 0.00 | 0.00 | 0.00 | 60 | 1019.7 |
| 20260507222505 | 65 | 281 | 2.0 | 4.0 | 0.00 | 0.00 | 0.00 | 59 | 1019.7 |
| 20260507222005 | 65 | 273 | 2.0 | 4.0 | 0.00 | 0.00 | 0.00 | 59 | 1019.8 |
| 20260507221506 | 65 | 267 | 2.0 | 4.0 | 0.00 | 0.00 | 0.00 | 59 | 1019.8 |
| 20260507221003 | 65 | 271 | 2.0 | 6.0 | 0.00 | 0.00 | 0.00 | 58 | 1019.9 |
| 20260507220503 | 65 | 273 | 3.0 | 6.0 | 0.00 | 0.00 | 0.00 | 58 | 1019.9 |
| 20260507220003 | 65 | 273 | 3.0 | 6.0 | 0.00 | 0.00 | 0.00 | 57 | 1019.9 |
| 20260507215503 | 65 | 265 | 3.0 | 6.0 | 0.00 | 0.00 | 0.00 | 57 | 1020.0 |
| 20260507215100 | 65 | 250 | 3.0 | 5.0 | 0.00 | 0.00 | 0.00 | 57 | 1020.1 |
| 20260507214559 | 65 | 259 | 3.0 | 4.0 | 0.00 | 0.00 | 0.00 | 56 | 1020.2 |
| 20260507214100 | 65 | 268 | 2.0 | 4.0 | 0.00 | 0.00 | 0.00 | 55 | 1020.2 |
| 20260507213601 | 66 | 271 | 2.0 | 7.0 | 0.00 | 0.00 | 0.00 | 54 | 1020.2 |
| 20260507213100 | 66 | 288 | 4.0 | 7.0 | 0.00 | 0.00 | 0.00 | 54 | 1020.3 |
| 20260507212556 | 66 | 267 | 3.0 | 6.0 | 0.00 | 0.00 | 0.00 | 53 | 1020.4 |
| 20260507212056 | 66 | 273 | 2.0 | 6.0 | 0.00 | 0.00 | 0.00 | 52 | 1020.4 |
| 20260507211555 | 66 | 291 | 2.0 | 4.0 | 0.00 | 0.00 | 0.00 | 53 | 1020.3 |
| 20260507211054 | 66 | 282 | 2.0 | 4.0 | 0.00 | 0.00 | 0.00 | 52 | 1020.4 |
| 20260507210554 | 66 | 269 | 2.0 | 4.0 | 0.00 | 0.00 | 0.00 | 52 | 1020.3 |
| 20260507210053 | 66 | 240 | 1.0 | 3.0 | 0.00 | 0.00 | 0.00 | 52 | 1020.4 |
| 20260507205553 | 66 | 238 | 2.0 | 3.0 | 0.00 | 0.00 | 0.00 | 51 | 1020.4 |
| 20260507205053 | 66 | 161 | 0.0 | 2.0 | 0.00 | 0.00 | 0.00 | 50 | 1020.3 |
| 20260507204552 | 67 | 156 | 1.0 | 2.0 | 0.00 | 0.00 | 0.00 | 50 | 1020.2 |
| 20260507204052 | 67 | 154 | 0.0 | 2.0 | 0.00 | 0.00 | 0.00 | 50 | 1020.3 |
| 20260507203552 | 66 | 137 | 0.0 | 2.0 | 0.00 | 0.00 | 0.00 | 51 | 1020.3 |
| 20260507203051 | 66 | 137 | 1.0 | 3.0 | 0.00 | 0.00 | 0.00 | 51 | 1020.3 |
| 20260507202551 | 66 | 136 | 0.0 | 3.0 | 0.00 | 0.00 | 0.00 | 50 | 1020.3 |
| 20260507202051 | 66 | 142 | 1.0 | 3.0 | 0.00 | 0.00 | 0.00 | 50 | 1020.4 |
| 20260507201551 | 66 | 134 | 1.0 | 4.0 | 0.00 | 0.00 | 0.00 | 50 | 1020.4 |
| 20260507201051 | 66 | 136 | 1.0 | 7.0 | 0.00 | 0.00 | 0.00 | 50 | 1020.3 |
| 20260507200551 | 66 | 127 | 2.0 | 7.0 | 0.00 | 0.00 | 0.00 | 50 | 1020.3 |
| 20260507200050 | 66 | 134 | 2.0 | 7.0 | 0.00 | 0.00 | 0.00 | 49 | 1020.2 |
| 20260507195549 | 66 | 136 | 4.0 | 7.0 | 0.00 | 0.00 | 0.00 | 49 | 1020.1 |
| 20260507195052 | 66 | 126 | 3.0 | 7.0 | 0.00 | 0.00 | 0.00 | 49 | 1020.1 |
| 20260507194548 | 67 | 136 | 3.0 | 7.0 | 0.00 | 0.00 | 0.00 | 49 | 1020.2 |
| 20260507194046 | 67 | 121 | 2.0 | 7.0 | 0.00 | 0.00 | 0.00 | 49 | 1020.0 |
| 20260507193546 | 67 | 94 | 2.0 | 7.0 | 0.00 | 0.00 | 0.00 | 49 | 1020.0 |
| 20260507193047 | 67 | 94 | 3.0 | 6.0 | 0.00 | 0.00 | 0.00 | 49 | 1019.8 |
| 20260507192547 | 67 | 68 | 0.0 | 0.0 | 0.00 | 0.00 | 0.00 | 49 | 1020.0 |
| 20260507192046 | 67 | 65 | 0.0 | 2.0 | 0.00 | 0.00 | 0.00 | 49 | 1020.0 |
| 20260507191546 | 67 | 47 | 0.0 | 3.0 | 0.00 | 0.00 | 0.00 | 50 | 1019.9 |
| 20260507191047 | 67 | 46 | 1.0 | 3.0 | 0.00 | 0.00 | 0.00 | 50 | 1019.7 |
| 20260507190545 | 67 | 40 | 2.0 | 4.0 | 0.00 | 0.00 | 0.00 | 49 | 1019.7 |
| 20260507190044 | 68 | 34 | 2.0 | 4.0 | 0.00 | 0.00 | 0.00 | 50 | 1019.9 |
| 20260507185644 | 68 | 19 | 1.0 | 4.0 | 0.00 | 0.00 | 0.00 | 50 | 1019.9 |
| 20260507185044 | 68 | 314 | 1.0 | 4.0 | 0.00 | 0.00 | 0.00 | 49 | 1019.9 |
| 20260507184543 | 68 | 301 | 1.0 | 4.0 | 0.00 | 0.00 | 0.00 | 49 | 1019.9 |
| 20260507184043 | 68 | 321 | 2.0 | 4.0 | 0.00 | 0.00 | 0.00 | 50 | 1019.8 |
| 20260507183543 | 68 | 318 | 2.0 | 4.0 | 0.00 | 0.00 | 0.00 | 50 | 1019.8 |
| 20260507183051 | 68 | 277 | 2.0 | 4.0 | 0.00 | 0.00 | 0.00 | 50 | 1019.8 |
| 20260507182543 | 68 | 299 | 1.0 | 7.0 | 0.00 | 0.00 | 0.00 | 51 | 1019.7 |
| 20260507182041 | 68 | 298 | 3.0 | 8.0 | 0.00 | 0.00 | 0.00 | 51 | 1019.8 |
| 20260507181542 | 68 | 268 | 4.0 | 8.0 | 0.00 | 0.00 | 0.00 | 51 | 1019.9 |
| 20260507181042 | 68 | 319 | 2.0 | 6.0 | 0.00 | 0.00 | 0.00 | 50 | 1019.8 |
| 20260507180545 | 68 | 275 | 3.0 | 6.0 | 0.00 | 0.00 | 0.00 | 49 | 1019.7 |
| 20260507180050 | 68 | 286 | 2.0 | 7.0 | 0.00 | 0.00 | 0.00 | 49 | 1019.8 |
| 20260507175541 | 68 | 267 | 3.0 | 9.0 | 0.00 | 0.00 | 0.00 | 48 | 1019.7 |
| 20260507175041 | 68 | 272 | 7.0 | 9.0 | 0.00 | 0.00 | 0.00 | 47 | 1019.7 |
| 20260507174541 | 68 | 258 | 4.0 | 9.0 | 0.00 | 0.00 | 0.00 | 48 | 1019.5 |
| 20260507174040 | 69 | 294 | 4.0 | 9.0 | 0.00 | 0.00 | 0.00 | 47 | 1019.6 |
| 20260507173543 | 69 | 269 | 5.0 | 9.0 | 0.00 | 0.00 | 0.00 | 47 | 1019.7 |
| 20260507173055 | 69 | 273 | 5.0 | 11.0 | 0.00 | 0.00 | 0.00 | 47 | 1019.8 |
| 20260507172539 | 69 | 268 | 8.0 | 11.0 | 0.00 | 0.00 | 0.00 | 46 | 1019.8 |
| 20260507172040 | 70 | 269 | 5.0 | 8.0 | 0.00 | 0.00 | 0.00 | 46 | 1019.7 |
| 20260507171539 | 70 | 271 | 5.0 | 13.0 | 0.00 | 0.00 | 0.00 | 43 | 1019.7 |
| 20260507171040 | 70 | 250 | 7.0 | 13.0 | 0.00 | 0.00 | 0.00 | 38 | 1019.6 |
| 20260507170539 | 71 | 258 | 6.0 | 9.0 | 0.00 | 0.00 | 0.00 | 38 | 1019.4 |
| 20260507170049 | 71 | 277 | 3.0 | 6.0 | 0.00 | 0.00 | 0.00 | 39 | 1019.3 |
| 20260507165539 | 71 | 264 | 1.0 | 5.0 | 0.00 | 0.00 | 0.00 | 39 | 1019.1 |
| 20260507165039 | 71 | 256 | 3.0 | 5.0 | 0.00 | 0.00 | 0.00 | 39 | 1019.1 |
| 20260507164538 | 71 | 338 | 2.0 | 6.0 | 0.00 | 0.00 | 0.00 | 40 | 1019.0 |
| 20260507164038 | 71 | 257 | 2.0 | 6.0 | 0.00 | 0.00 | 0.00 | 39 | 1018.9 |
| 20260507163539 | 71 | 250 | 2.0 | 5.0 | 0.00 | 0.00 | 0.00 | 38 | 1019.1 |
| 20260507163038 | 71 | 220 | 3.0 | 8.0 | 0.00 | 0.00 | 0.00 | 39 | 1019.0 |
| 20260507162539 | 72 | 226 | 5.0 | 12.0 | 0.00 | 0.00 | 0.00 | 38 | 1019.1 |
| 20260507162038 | 72 | 185 | 6.0 | 12.0 | 0.00 | 0.00 | 0.00 | 37 | 1019.1 |
| 20260507161540 | 72 | 217 | 7.0 | 12.0 | 0.00 | 0.00 | 0.00 | 37 | 1019.1 |
| 20260507161037 | 71 | 251 | 5.0 | 10.0 | 0.00 | 0.00 | 0.00 | 38 | 1019.2 |
| 20260507160538 | 72 | 263 | 5.0 | 10.0 | 0.00 | 0.00 | 0.00 | 38 | 1019.2 |
| 20260507160038 | 72 | 267 | 5.0 | 10.0 | 0.00 | 0.00 | 0.00 | 37 | 1019.3 |
| 20260507155537 | 71 | 269 | 6.0 | 9.0 | 0.00 | 0.00 | 0.00 | 41 | 1019.2 |
| 20260507155040 | 72 | 223 | 4.0 | 11.0 | 0.00 | 0.00 | 0.00 | 39 | 1019.3 |
| 20260507154537 | 72 | 244 | 7.0 | 12.0 | 0.00 | 0.00 | 0.00 | 37 | 1019.4 |
| 20260507154036 | 72 | 215 | 5.0 | 12.0 | 0.00 | 0.00 | 0.00 | 41 | 1019.4 |
| 20260507153536 | 72 | 246 | 3.0 | 11.0 | 0.00 | 0.00 | 0.00 | 38 | 1019.5 |
| 20260507153035 | 73 | 244 | 9.0 | 12.0 | 0.00 | 0.00 | 0.00 | 37 | 1019.6 |
| 20260507152535 | 73 | 237 | 5.0 | 12.0 | 0.00 | 0.00 | 0.00 | 39 | 1019.6 |
| 20260507152034 | 73 | 235 | 8.0 | 11.0 | 0.00 | 0.00 | 0.00 | 37 | 1019.7 |
| 20260507151535 | 73 | 201 | 8.0 | 11.0 | 0.00 | 0.00 | 0.00 | 37 | 1019.7 |
| 20260507151034 | 73 | 215 | 7.0 | 13.0 | 0.00 | 0.00 | 0.00 | 37 | 1019.6 |
| 20260507150534 | 72 | 251 | 9.0 | 13.0 | 0.00 | 0.00 | 0.00 | 37 | 1019.6 |
| 20260507150034 | 72 | 241 | 7.0 | 13.0 | 0.00 | 0.00 | 0.00 | 40 | 1019.6 |
| 20260507145532 | 72 | 271 | 7.0 | 13.0 | 0.00 | 0.00 | 0.00 | 41 | 1019.6 |
| 20260507145032 | 73 | 251 | 7.0 | 13.0 | 0.00 | 0.00 | 0.00 | 37 | 1019.5 |
| 20260507144532 | 73 | 249 | 10.0 | 13.0 | 0.00 | 0.00 | 0.00 | 35 | 1019.6 |
| 20260507144032 | 74 | 198 | 5.0 | 12.0 | 0.00 | 0.00 | 0.00 | 35 | 1019.5 |
| 20260507143531 | 74 | 214 | 7.0 | 12.0 | 0.00 | 0.00 | 0.00 | 36 | 1019.6 |
| 20260507143031 | 73 | 225 | 8.0 | 12.0 | 0.00 | 0.00 | 0.00 | 36 | 1019.6 |
| 20260507142531 | 74 | 234 | 6.0 | 16.0 | 0.00 | 0.00 | 0.00 | 36 | 1019.6 |
| 20260507142030 | 74 | 202 | 8.0 | 17.0 | 0.00 | 0.00 | 0.00 | 36 | 1019.5 |
| 20260507141531 | 74 | 240 | 11.0 | 20.0 | 0.00 | 0.00 | 0.00 | 33 | 1019.5 |
| 20260507141032 | 74 | 230 | 12.0 | 20.0 | 0.00 | 0.00 | 0.00 | 34 | 1019.4 |
| 20260507140529 | 74 | 206 | 8.0 | 16.0 | 0.00 | 0.00 | 0.00 | 35 | 1019.2 |
| 20260507140034 | 75 | 184 | 9.0 | 14.0 | 0.00 | 0.00 | 0.00 | 33 | 1019.2 |
| 20260507135528 | 75 | 158 | 10.0 | 13.0 | 0.00 | 0.00 | 0.00 | 34 | 1019.1 |
| 20260507135028 | 75 | 254 | 8.0 | 19.0 | 0.00 | 0.00 | 0.00 | 33 | 1019.2 |
| 20260507134527 | 75 | 229 | 9.0 | 18.0 | 0.00 | 0.00 | 0.00 | 34 | 1018.9 |
| 20260507134026 | 75 | 193 | 9.0 | 14.0 | 0.00 | 0.00 | 0.00 | 32 | 1019.0 |
| 20260507133525 | 75 | 259 | 7.0 | 14.0 | 0.00 | 0.00 | 0.00 | 39 | 1018.9 |
| 20260507133024 | 74 | 249 | 7.0 | 12.0 | 0.00 | 0.00 | 0.00 | 38 | 1018.8 |
| 20260507132522 | 74 | 219 | 8.0 | 15.0 | 0.00 | 0.00 | 0.00 | 41 | 1018.9 |
| 20260507132022 | 73 | 261 | 10.0 | 12.0 | 0.00 | 0.00 | 0.00 | 41 | 1018.9 |
| 20260507131521 | 74 | 262 | 8.0 | 12.0 | 0.00 | 0.00 | 0.00 | 44 | 1019.0 |
| 20260507131024 | 73 | 238 | 8.0 | 12.0 | 0.00 | 0.00 | 0.00 | 47 | 1019.0 |
| 20260507130520 | 72 | 234 | 7.0 | 15.0 | 0.00 | 0.00 | 0.00 | 48 | 1019.1 |
| 20260507130020 | 72 | 246 | 9.0 | 15.0 | 0.00 | 0.00 | 0.00 | 50 | 1019.1 |
| 20260507125520 | 71 | 288 | 9.0 | 16.0 | 0.00 | 0.00 | 0.00 | 51 | 1019.3 |
| 20260507125019 | 71 | 269 | 11.0 | 16.0 | 0.00 | 0.00 | 0.00 | 50 | 1019.3 |
| 20260507124519 | 72 | 261 | 10.0 | 14.0 | 0.00 | 0.00 | 0.00 | 49 | 1019.3 |
| 20260507124019 | 72 | 248 | 10.0 | 14.0 | 0.00 | 0.00 | 0.00 | 48 | 1019.4 |
| 20260507123519 | 73 | 219 | 7.0 | 14.0 | 0.00 | 0.00 | 0.00 | 48 | 1019.4 |
| 20260507123022 | 73 | 275 | 10.0 | 14.0 | 0.00 | 0.00 | 0.00 | 48 | 1019.4 |